TimeCET,TemperatureF,Dew PointF,Humidity,Sea Level PressureIn,VisibilityMPH,Wind Direction,Wind SpeedMPH,Gust SpeedMPH,PrecipitationIn,Events,Conditions,WindDirDegrees,DateUTC
12:00 AM,32.0,24.8,75,29.71,4.3,West,1.2,-,N/A,,Unknown,260,2013-03-29 23:00:00
1:00 AM,30.2,24.8,80,29.71,3.7,Calm,Calm,-,N/A,,Unknown,0,2013-03-30 00:00:00
2:00 AM,28.4,24.8,86,29.71,3.1,SSW,2.3,-,N/A,,Mist,200,2013-03-30 01:00:00
2:47 AM,26.6,23.0,86,29.71,2.5,SW,1.2,-,N/A,,Mist,220,2013-03-30 01:47:00
3:00 AM,26.6,23.0,86,29.71,2.5,Variable,1.2,-,N/A,,Mist,0,2013-03-30 02:00:00
4:00 AM,26.6,23.0,86,29.71,3.1,Calm,Calm,-,N/A,,Mist,0,2013-03-30 03:00:00
5:00 AM,26.6,24.8,93,29.68,3.7,South,1.2,-,N/A,,Unknown,170,2013-03-30 04:00:00
5:20 AM,28.4,24.8,86,29.68,2.5,SE,2.3,-,N/A,,Mist,140,2013-03-30 04:20:00
6:00 AM,28.4,24.8,86,29.71,2.2,Variable,1.2,-,N/A,,Mist,0,2013-03-30 05:00:00
7:00 AM,30.2,26.6,86,29.71,2.5,ESE,3.5,-,N/A,,Mist,120,2013-03-30 06:00:00
8:00 AM,32.0,24.8,75,29.71,3.1,North,3.5,-,N/A,,Mist,10,2013-03-30 07:00:00
9:00 AM,33.8,26.6,75,29.71,3.1,Variable,2.3,-,N/A,,Mist,0,2013-03-30 08:00:00
10:00 AM,37.4,24.8,60,29.71,3.1,Variable,2.3,-,N/A,,Mist,0,2013-03-30 09:00:00
11:00 AM,41.0,21.2,45,29.68,4.3,Variable,3.5,-,N/A,,Unknown,0,2013-03-30 10:00:00
12:00 PM,42.8,21.2,42,29.68,5.0,North,4.6,-,N/A,,Unknown,350,2013-03-30 11:00:00
1:00 PM,42.8,19.4,39,29.65,5.0,Variable,3.5,-,N/A,,Unknown,0,2013-03-30 12:00:00
2:00 PM,44.6,19.4,37,29.65,5.0,Variable,3.5,-,N/A,,Unknown,0,2013-03-30 13:00:00
3:00 PM,44.6,23.0,43,29.65,-9999.0,NE,5.8,-,N/A,,Clear,40,2013-03-30 14:00:00
4:00 PM,44.6,21.2,39,29.65,-9999.0,North,3.5,-,N/A,,Clear,360,2013-03-30 15:00:00
5:00 PM,44.6,23.0,43,29.62,-9999.0,ENE,5.8,-,N/A,,Clear,70,2013-03-30 16:00:00
6:00 PM,41.0,21.2,45,29.62,-9999.0,NE,6.9,-,N/A,,Clear,50,2013-03-30 17:00:00
7:00 PM,41.0,21.2,45,29.65,-9999.0,NE,4.6,-,N/A,,Clear,40,2013-03-30 18:00:00
8:00 PM,37.4,24.8,60,29.68,5.0,NE,8.1,-,N/A,,Unknown,40,2013-03-30 19:00:00
9:00 PM,37.4,24.8,60,29.68,3.7,NE,8.1,-,N/A,,Unknown,50,2013-03-30 20:00:00
10:00 PM,35.6,24.8,65,29.68,3.7,NE,4.6,-,N/A,,Unknown,50,2013-03-30 21:00:00
11:00 PM,35.6,24.8,65,29.68,3.7,Variable,2.3,-,N/A,,Unknown,0,2013-03-30 22:00:00